SCP
0 1 1 1 0 0 1 1 0 0 1 1 0 0 0 -0 -0 -0 0 0 0 0
1 1 1 1 1 1 1 0 0 1 1 0 0 0 0 -0 0 0 0 0 0 0
1 1 1 0 0 0 0 0 0 0 0 -0 -0 0 0 0 0 0 0 0 0 0
1 0 0 0 0 0 0 0 0 0 0 -0 0 0 0 0 0 0 0 0 0 0
0 0 0 0 0 0 0 0 0 0 0 0 0 0 0 0 1 0 0 0 0 0
0 0 0 0 0 0 0 0 0 0 0 0 0 0 0 0 0 0 0 0 0 0
0 0 0 0 0 0 0 0 0 0 0 0 0 0 0 0 0 0 0 0 0 0
0 0 0 0 0 0 0 0 0 0 0 0 0 0 0 0 0 0 0 0 0 0
0 0 0 0 0 0 0 0 0 0 0 0 0 0 0 0 0 0 0 0 0 0
0 0 0 0 0 0 0 0 0 0 0 0 0 0 0 0 0 0 0 0 0 0
0 0 0 0 0 0 0 0 0 0 0 0 0 0 0 0 0 0 0 0 0 0
0 0 0 0 0 0 0 0 0 0 0 0 0 0 0 0 0 0 0 0 0 0
0 0 0 0 0 0 0 0 0 0 0 0 0 0 0 0 0 0 0 0 0 0
0 0 0 0 0 0 0 0 0 0 0 0 0 0 0 0 0 0 0 0 0 0
Wind_Speed_500mb
51 54 55 42 38 42 50 53 53 61 67 83 80 56 40 34 38 50 60 61 59 58
42 44 50 46 46 43 42 52 56 59 59 64 64 58 50 47 50 66 58 55 57 57
32 34 39 40 41 43 48 55 56 53 39 40 38 47 44 48 51 46 47 49 50 48
15 1 8 9 15 22 32 44 44 27 50 54 38 36 37 38 37 39 41 44 50 53
13 24 25 19 15 19 20 7 4 20 19 14 17 21 31 34 36 44 46 49 55 59
8 5 9 8 5 3 4 3 3 5 3 1 10 19 29 38 46 50 56 62 65 68
11 8 7 8 8 10 9 9 15 18 22 28 36 37 38 39 42 44 48 53 55 61
21 20 23 24 21 18 19 21 24 26 27 31 36 41 48 57 63 66 72 76 74 72
23 28 30 27 27 27 28 32 35 38 42 46 48 52 56 61 68 75 83 89 93 95
22 22 25 28 32 38 43 47 50 53 56 58 60 60 63 66 68 72 76 81 86 88
27 31 37 43 47 51 54 56 59 61 61 60 58 54 51 58 66 71 74 77 81 82
37 43 48 52 54 57 60 60 58 54 54 55 59 62 66 72 78 81 84 83 81 77
46 48 49 52 54 49 50 52 58 65 69 73 70 59 57 56 59 64 64 61 61 59
50 51 51 52 53 59 65 70 73 69 60 53 51 49 40 44 52 57 61 64 64 58
Wind_Direction_500mb
241 245 250 251 274 263 255 260 264 264 261 242 232 218 202 193 199 228 230 234 241 248
263 261 264 265 252 257 255 254 254 286 265 238 225 228 217 226 225 219 228 241 244 249
259 261 262 266 266 262 254 256 261 280 292 274 227 222 227 223 218 233 242 246 253 262
69 342 296 273 266 284 291 287 289 273 231 223 233 219 222 234 237 238 249 260 263 268
65 77 74 76 62 65 36 88 214 231 215 222 218 231 241 250 254 253 260 269 272 276
41 48 62 101 102 84 40 25 207 170 172 246 259 258 264 269 267 268 266 268 267 270
20 5 308 308 302 303 296 268 269 275 266 257 252 253 256 264 269 270 267 267 265 268
338 327 325 323 318 310 306 297 293 292 283 273 268 267 267 265 264 265 264 265 269 270
347 351 349 342 325 309 301 299 298 296 294 292 291 288 282 277 273 271 274 277 277 277
329 315 303 299 298 300 302 301 299 299 299 299 297 295 293 293 290 287 286 286 286 286
305 295 291 292 295 295 297 300 301 301 301 299 298 296 293 289 287 287 287 287 286 285
302 299 298 299 302 304 301 299 299 301 303 302 299 297 294 290 288 288 288 288 290 292
298 300 301 300 298 298 297 297 297 297 298 298 299 299 301 299 296 295 301 301 298 295
291 292 293 295 294 295 297 298 299 301 302 303 309 310 314 316 315 311 309 307 306 304
Wind_Speed_850mb
51 54 55 42 38 42 50 53 53 61 67 83 80 56 40 34 38 50 60 61 59 58
42 44 50 46 46 43 42 52 56 59 59 64 64 58 50 47 50 66 58 55 57 57
32 34 39 40 41 43 48 55 56 53 39 40 38 47 44 48 51 46 47 49 50 48
15 1 8 9 15 22 32 44 44 27 50 54 38 36 37 38 37 39 41 44 50 53
13 24 25 19 15 19 20 7 4 20 19 14 17 21 31 34 36 44 46 49 55 59
8 5 9 8 5 3 4 3 3 5 3 1 10 19 29 38 46 50 56 62 65 68
11 8 7 8 8 10 9 9 15 18 22 28 36 37 38 39 42 44 48 53 55 61
21 20 23 24 21 18 19 21 24 26 27 31 36 41 48 57 63 66 72 76 74 72
23 28 30 27 27 27 28 32 35 38 42 46 48 52 56 61 68 75 83 89 93 95
22 22 25 28 32 38 43 47 50 53 56 58 60 60 63 66 68 72 76 81 86 88
27 31 37 43 47 51 54 56 59 61 61 60 58 54 51 58 66 71 74 77 81 82
37 43 48 52 54 57 60 60 58 54 54 55 59 62 66 72 78 81 84 83 81 77
46 48 49 52 54 49 50 52 58 65 69 73 70 59 57 56 59 64 64 61 61 59
50 51 51 52 53 59 65 70 73 69 60 53 51 49 40 44 52 57 61 64 64 58
Wind_Direction_850mb
241 245 250 251 274 263 255 260 264 264 261 242 232 218 202 193 199 228 230 234 241 248
263 261 264 265 252 257 255 254 254 286 265 238 225 228 217 226 225 219 228 241 244 249
259 261 262 266 266 262 254 256 261 280 292 274 227 222 227 223 218 233 242 246 253 262
69 342 296 273 266 284 291 287 289 273 231 223 233 219 222 234 237 238 249 260 263 268
65 77 74 76 62 65 36 88 214 231 215 222 218 231 241 250 254 253 260 269 272 276
41 48 62 101 102 84 40 25 207 170 172 246 259 258 264 269 267 268 266 268 267 270
20 5 308 308 302 303 296 268 269 275 266 257 252 253 256 264 269 270 267 267 265 268
338 327 325 323 318 310 306 297 293 292 283 273 268 267 267 265 264 265 264 265 269 270
347 351 349 342 325 309 301 299 298 296 294 292 291 288 282 277 273 271 274 277 277 277
329 315 303 299 298 300 302 301 299 299 299 299 297 295 293 293 290 287 286 286 286 286
305 295 291 292 295 295 297 300 301 301 301 299 298 296 293 289 287 287 287 287 286 285
302 299 298 299 302 304 301 299 299 301 303 302 299 297 294 290 288 288 288 288 290 292
298 300 301 300 298 298 297 297 297 297 298 298 299 299 301 299 296 295 301 301 298 295
291 292 293 295 294 295 297 298 299 301 302 303 309 310 314 316 315 311 309 307 306 304